COSMOS 504

Satellite information

Favourite Embed

Satellite Type and Status

PAYLOADIN ORBIT

Key statistics

Satellite COSMOS 504 at a glance.

Uptime

19511

Days in orbit

Revolutions

≈ 12.6

Per day

Orbit

LEO

Low Earth Orbit

Inclination

74.0

Latest

Satellite identification and parameters

Extended collection of information and parameters for COSMOS 504.

Object identification

Identified? True

Debris? False

Object name: COSMOS 504

International designator: 1972-057A

Object number (NORAD): 6117

Object ID (CCSDS): 6117

Country: COMMONWEALTH OF INDEPENDENT STATES (CIS)

Current information (Y/N): Y

RCS size: MEDIUM

Orbital parameters

Period: 113.958 minutes

Inclination: 74.0281 deg

SMA: 7786.167 km

Apoapsis: 1495.752 km

Periapsis: 1320.311 km

RAAN: 267.9339 deg

Eccentricy: 0.0112662

Argument of periapsis: 262.4584 deg

Mean anomaly: 178.7849 deg

Mean motion: 12.63622051 rev/day

Mean motion (dot): -0.00000008 rev/day2

B* drag term: 0.000046630066 1/REarth

Two-line elements (TLE)

Creation date: Dec. 20, 2025, 3:40 a.m.

Reference frame: TEME

Reference center: EARTH

Epoch: Dec. 19, 2025, 11:16 p.m. UTC

TLE line 0: 0 COSMOS 504

TLE line 1: 1 06117U 72057A 25353.96982924 -.00000008 00000-0 46630-4 0 9995

TLE line 2: 2 06117 74.0281 267.9339 0112662 262.4584 178.7849 12.63622051463967

Live tracking on map

Real-time ground track for satellite COSMOS 504.

In-orbit conjunctions

There are no conjunctions computed for COSMOS 504, at the moment. Check back to stay up to date, as we update our databases every day.

Go to all conjunctions

Associated space launch

Military communications satellites

COSMOS 504 was lifted into orbit during the mission ‘Kosmos-3M | Strela-1M 25-32’, on board a Kosmos-3M space rocket.

The launch took place on July 20, 1972, 6:10 p.m. from 132/2.

For more information about the launch, click the button.

Launch to space Kosmos-3M | Strela-1M 25-32
Kosmos-3M | Strela-1M 25-32

Agency: N/A

Status: Launch Successful

Launch date: July 20, 1972, 6:10 p.m. UTC

Rocket: Kosmos-3M

Launch pad: 132/2

Location: Plesetsk Cosmodrome, Russian Federation

...

Latest news about this satellite

There are no fresh news available about this satellite. Check back as we update our databases every day.


Newsletter sign-up

Weekly statistics, charts and insights to help you stay on top of the space industry.